Location: Oberwangen
(47.4286°N, 8.9679°E)
Time: 08:16:24
(UTC+00:00)

Cosmos 1447 Rocket - Pass Details

Date: 23 October 2021
Orbit: 953 x 996 km, 82.9° (Epoch: 27 November)

Event Time Altitude Azimuth Distance (km) Brightness Sun altitude
Rises 20:10:19 0° 335° (NNW) 3,644 8.1 -38.4°
Reaches altitude 10° 20:14:10 10° 311° (NW) 2,690 7.5 -39.0°
Maximum altitude 20:17:01 14° 283° (WNW) 2,423 7.1 -39.4°
Drops below altitude 10° 20:19:53 10° 255° (WSW) 2,683 7.2 -39.8°
Sets 20:23:45 0° 231° (SW) 3,627 7.7 -40.4°
